Zurück zum Katalog

STARLINK-5799

AktivKommunikationVLEO
NORAD 56002·PAYLOAD·🇺🇸 United States

Gestartet Mar 24, 2023 von Cape Canaveral Space Force Station

Loading…

Nächste Überflüge (nächste 24 Stunden)

TLE

AktuellSource: CelesTrak SupGP

Epoche: Sep 14, 2026, 22:22 UTC

1 56002C 23042S   26257.93243056  .00056174  00000+0  20343-2 0  2571
2 56002  43.0040  70.7480 0001806 273.9091  61.7869 15.27555923    10

Verfolge STARLINK-5799 in Echtzeit mit AllMySat

Download on the App Store